Regional Weather Roundup
Issued by NWS Binghamton, NY

Home | Current Version | Previous Version | Text Only | Print | Product List | Glossary On
Versions: 1 2 3 4 5 6 7 8 9 10 11 12 13 14 15 16 17 18 19 20 21 22 23 24 25 26 27 28 29 30 31 32 33 34 35 36 37 38 39 40 41 42 43 44 45 46 47 48 49 50
000
ASUS41 KBGM 300410
RWRBGM
RWRBGM
BINGHAMTON REGIONAL WEATHER ROUNDUP
NATIONAL WEATHER SERVICE BINGHAMTON NY
1200 AM EDT THU JUL 30 2015

Note: "fair" indicates few or no clouds below 12,000 feet with no
significant weather and/or obstructions to visibility.

* = Station(s) that does not report precipitation, such as rain,
snow, etc, also no thunder or fog.

!NYZ009-015>018-022>025-036-037-044>046-055>057-062-300500
...CENTRAL NEW YORK...

CITY           SKY/WX    TMP DP  RH WIND       PRES   REMARKS
BINGHAMTON     CLEAR     74  64  71 SW8       29.96F
CORTLAND       FAIR      68  64  88 CALM      29.95S
DANSVILLE      PTCLDY    74  66  76 SE5       29.90S
ELMIRA         PTCLDY    68  67  96 CALM      29.91F
ITHACA         PTCLDY    73  66  78 S7        29.94S
HORNELL          N/A     66  64  94 CALM      29.96S FOG
MONTICELLO     CLEAR     68  66  94 CALM      29.99S
NORWICH        CLEAR     66  64  94 CALM      29.95R
ONEONTA        CLEAR     72  59  64 CALM      29.98S
PENN YAN       PTCLDY    75  67  76 S7        29.91S
ROME           CLEAR     73  66  78 E5        29.89F
SIDNEY         CLEAR     70  70 100 CALM      29.95R FOG
SYRACUSE       PTCLDY    74  65  73 E6        29.86F
$$

!PAZ038>040-043-044-047-048-072-300500
...NORTHEAST PENNSYLVANIA...

CITY           SKY/WX    TMP DP  RH WIND       PRES   REMARKS
HAZLETON       PTCLDY    73  72  94 S5        30.02F
SCRANTON       CLEAR     79  69  71 VRB3      29.95F
$$
&&
KEY
WCI = WIND CHILL INDEX
VSB = VISIBILITY
HX  = HEAT INDEX
$$


USA.gov is the U.S. government's official web portal to all federal, state and local government web resources and services.